Location: STAR School
(35.3054°N, 111.2976°W)
Time: 04:20:14
(UTC-07:00)

SR - Pass Details

Date: 23 May 2019
Orbit: 582 x 874 km, 66.7° (Epoch: 16 June)

Event Time Altitude Azimuth Distance (km) Brightness Sun altitude
Rises 20:54:25 0° 326° (NW) 2,963 ? -15.5°
Reaches altitude 10° 20:56:42 10° 320° (NW) 2,090 ? -15.8°
Maximum altitude 21:01:14 47° 247° (WSW) 936 ? -16.5°
Enters shadow 21:04:56 17° 180° (S) 1,818 ? -17.1°
